Wind_Speed
31 30 31 31 32 33 33 33 34 33 32 31 31 30 29 27 27 27 28 28 28 25 24 24 22 22 21 22 21 22 22 21 20 20 20 18 19 20 19 18 17 17 17 18
34 33 33 33 32 33 33 34 35 34 34 34 34 34 33 32 31 31 30 29 28 28 27 26 25 24 23 23 23 25 25 23 23 22 22 21 22 22 22 21 21 21 20 20
35 34 35 36 34 35 35 36 37 38 37 36 37 36 36 34 33 31 31 30 31 30 29 28 27 26 26 24 24 26 27 26 26 25 24 24 25 24 24 24 24 24 23 23
35 34 35 34 35 36 37 37 37 37 39 40 39 39 39 37 36 34 32 33 33 32 31 31 30 29 29 28 27 27 28 28 27 27 27 27 26 26 26 25 25 25 26 25
35 36 35 34 34 35 36 37 38 39 39 38 39 39 40 38 37 36 35 36 36 34 33 33 33 32 33 33 32 30 30 30 29 29 30 29 29 29 29 28 28 28 28 28
36 36 37 36 35 35 35 37 38 40 40 39 40 40 39 39 39 38 37 37 36 36 36 36 36 36 35 35 34 33 33 32 31 31 31 32 32 31 31 31 31 31 30 30
37 38 38 37 36 37 38 39 38 39 40 40 41 42 42 42 41 40 39 37 37 37 38 37 37 38 38 37 37 37 35 33 34 34 34 35 35 34 34 34 34 33 33 32
37 38 39 37 37 38 39 40 40 40 40 41 41 42 43 43 42 41 40 40 41 39 38 39 40 40 39 38 39 39 38 36 36 36 36 36 36 36 35 35 35 35 34 33
38 38 38 38 38 39 40 40 39 40 40 41 40 40 41 42 42 42 43 42 40 39 39 39 40 41 41 40 40 39 37 37 37 37 37 36 36 36 37 36 36 36 35 34
37 38 37 37 38 39 40 40 39 39 39 39 40 41 40 40 41 42 42 42 40 40 40 39 39 39 39 38 38 37 36 37 36 36 36 36 35 36 36 36 36 35 36 35
36 36 36 36 37 38 38 38 38 38 38 38 39 40 41 41 40 40 41 42 42 42 41 41 40 39 38 38 38 37 37 37 37 37 37 37 37 37 37 35 35 35 35 35
36 36 37 38 37 37 37 38 38 39 39 39 38 36 35 36 38 40 42 42 42 41 41 40 39 38 38 39 39 38 38 38 38 38 37 37 37 37 36 36 36 35 34 34
35 35 35 35 34 34 35 36 36 35 36 36 35 34 35 35 36 37 38 39 40 40 39 39 39 39 39 39 39 39 39 39 39 38 38 38 38 38 37 36 37 36 35 34
33 32 31 31 32 32 31 32 33 34 35 35 34 34 34 35 35 35 36 37 38 39 38 38 39 39 39 39 39 39 38 38 38 38 39 39 38 39 38 37 36 35 35 36
29 30 29 27 27 28 28 29 30 31 31 30 30 31 32 33 33 33 33 34 35 35 36 37 38 38 38 38 38 38 37 38 38 38 38 38 37 37 38 37 36 36 36 37
24 25 25 25 25 26 27 28 29 29 30 30 29 29 29 30 31 32 32 32 33 33 34 34 35 35 35 36 36 36 36 36 36 37 37 37 37 37 36 36 35 35 36 36
20 21 22 23 24 24 25 25 25 26 26 27 27 27 27 28 28 29 29 30 31 31 31 31 32 32 33 33 34 34 34 35 35 36 36 36 36 36 35 35 35 35 35 36
18 19 20 20 21 22 23 23 23 24 25 25 25 26 26 27 27 26 27 27 28 28 29 29 29 29 31 32 33 33 33 33 34 34 34 34 34 34 34 34 34 35 35 35
19 18 19 19 19 20 20 21 21 22 22 22 23 23 23 23 24 24 24 24 25 25 25 26 26 26 27 28 29 29 30 31 31 31 31 31 32 32 32 32 33 33 34 34
17 17 17 18 18 18 18 18 19 19 19 19 19 19 20 21 21 20 20 21 21 21 21 21 22 23 24 25 26 26 27 27 27 28 29 29 29 29 30 30 30 30 31 31
16 16 16 16 16 16 16 16 17 17 18 17 17 18 19 19 19 18 18 18 18 19 20 20 20 20 21 22 23 23 23 23 24 24 25 25 26 26 27 27 27 27 27 28
14 14 14 15 14 15 15 14 15 16 16 16 16 16 16 17 16 16 16 17 17 18 18 19 18 19 19 19 19 20 20 20 20 21 21 22 22 22 23 24 25 25 25 26
12 12 12 12 12 12 12 13 13 14 14 14 14 14 14 14 15 15 16 17 16 16 17 17 17 17 17 17 18 18 18 18 17 17 18 18 18 19 20 21 22 23 24 24
11 11 11 11 11 11 11 12 12 12 12 12 12 12 13 14 14 13 14 14 14 15 15 15 15 15 16 16 16 16 16 17 17 17 17 17 18 19 19 20 21 21 21 22
11 11 10 10 10 10 11 11 11 11 12 12 12 12 13 13 13 12 12 13 13 13 14 14 14 14 14 14 14 15 16 16 17 17 18 18 17 17 18 18 19 19 20 21
10 10 9 9 9 9 9 9 10 10 11 12 12 12 13 13 13 12 12 11 12 12 13 13 13 14 14 14 15 15 15 16 17 16 16 16 16 17 17 17 18 18 19 20
8 8 7 7 8 8 8 9 9 9 10 11 11 12 12 11 11 11 11 11 11 11 12 12 13 13 14 14 15 15 15 15 16 16 16 16 17 17 17 18 18 18 19 19
Wind_Direction
242 240 238 237 237 237 240 244 246 248 250 251 254 256 260 264 267 270 272 273 274 273 271 272 269 268 269 272 274 274 273 273 276 278 279 280 280 279 280 282 282 285 287 288
242 242 243 242 240 238 239 242 245 248 250 251 252 253 256 260 265 268 270 270 270 272 270 269 268 269 270 268 269 271 272 271 273 273 276 280 281 279 279 281 279 281 282 283
244 244 245 244 242 240 241 244 246 247 249 251 252 255 258 260 262 265 267 268 269 273 269 269 275 276 274 271 272 270 269 269 272 272 274 275 276 277 276 278 278 279 277 278
245 244 245 246 245 244 243 244 246 248 250 252 254 256 258 260 262 263 262 265 268 271 271 273 275 275 275 272 270 271 270 272 274 276 277 277 277 278 276 277 277 276 276 277
246 245 245 244 244 245 245 246 247 248 250 253 254 256 257 259 261 263 262 264 267 270 272 271 271 273 273 273 273 273 272 273 273 273 274 275 275 275 275 275 277 276 276 277
246 246 246 245 244 245 247 248 249 249 251 254 257 258 259 262 264 263 261 263 265 268 270 270 270 271 272 272 273 271 272 271 271 273 273 274 273 274 274 274 275 275 276 276
247 248 248 246 245 246 247 250 252 253 254 255 258 261 261 262 262 263 263 264 266 268 267 268 269 271 271 272 272 272 270 268 269 270 271 272 273 274 273 273 273 274 274 274
248 249 250 249 248 249 251 253 254 256 257 258 260 261 262 262 264 265 266 269 268 267 267 268 271 271 271 271 270 270 270 269 270 270 270 271 271 273 275 275 274 273 273 274
248 250 252 251 251 251 253 254 256 259 260 261 262 261 263 263 263 264 266 268 267 268 269 271 271 270 270 269 268 268 268 269 270 270 271 271 272 272 274 275 275 274 272 273
250 251 252 253 254 254 255 256 258 260 261 263 264 264 265 265 266 264 266 267 268 268 270 270 270 270 268 269 269 269 269 269 271 271 274 274 274 273 273 273 274 274 273 271
252 254 254 253 254 257 258 259 261 262 264 265 265 265 265 265 267 268 269 269 269 269 269 270 270 269 268 268 267 269 270 272 273 273 274 275 273 272 273 274 273 273 275 273
252 254 256 255 257 258 259 260 263 264 265 266 267 268 268 268 268 269 269 269 269 269 270 269 269 270 270 271 272 271 272 272 272 273 274 274 273 273 273 273 274 275 277 277
252 256 257 258 260 259 259 260 262 263 266 267 267 269 270 270 269 268 268 268 268 268 268 268 268 269 270 271 271 271 271 271 271 272 274 274 273 272 273 274 275 276 276 277
254 256 259 259 261 261 261 263 264 266 268 267 267 268 269 269 269 268 268 268 267 267 268 269 269 270 270 270 270 269 270 271 272 272 273 274 273 272 272 272 273 274 275 277
250 253 259 263 263 265 268 269 269 271 271 272 269 268 269 269 269 270 270 269 268 268 269 270 270 270 270 270 269 269 270 271 272 273 273 274 273 273 273 271 272 273 274 276
252 255 260 265 267 270 271 271 272 273 275 276 274 273 274 273 272 271 271 271 271 271 271 271 270 269 268 268 269 269 270 271 272 273 273 274 274 274 273 273 274 274 275 276
260 262 266 269 271 272 273 273 274 274 275 276 277 279 279 277 275 273 271 270 270 271 271 271 271 268 267 267 269 270 270 271 272 274 274 274 274 273 273 273 274 274 275 276
266 268 270 273 273 274 276 276 277 278 278 276 276 279 279 278 276 274 272 271 271 272 273 273 272 270 269 270 271 272 273 274 274 274 274 274 274 274 272 273 273 274 275 276
269 270 272 273 275 277 277 278 278 279 279 280 278 279 279 279 279 278 275 274 276 275 274 274 274 274 273 273 275 275 275 275 275 275 273 273 274 273 273 274 274 274 274 275
270 273 274 276 277 279 281 279 280 280 281 284 282 280 279 281 281 280 279 278 278 277 277 278 278 277 277 278 278 277 276 276 276 276 276 276 275 275 275 275 274 274 274 275
275 276 277 278 279 281 282 280 278 280 283 283 282 283 283 285 284 281 283 281 281 282 282 282 280 278 279 281 280 279 279 280 281 282 280 280 279 277 276 276 276 276 276 278
278 281 283 283 282 282 282 284 284 285 285 284 283 284 286 287 284 280 282 284 286 287 285 282 281 282 282 283 284 284 286 286 284 285 285 282 281 280 280 278 279 278 278 279
277 280 282 282 283 283 284 284 287 287 288 287 284 285 286 287 286 286 289 289 288 289 288 287 287 287 287 288 288 288 289 289 288 290 290 286 284 284 285 284 283 283 282 282
282 283 282 282 281 281 282 285 288 291 291 289 288 289 291 292 293 290 287 288 288 288 287 287 289 290 292 293 293 292 292 290 289 289 292 291 288 288 289 289 288 287 286 286
280 283 283 282 281 281 283 286 289 292 295 295 294 295 296 296 295 294 290 288 289 293 294 294 295 295 294 294 295 296 296 295 293 292 291 292 291 291 292 292 292 291 289 288
279 280 279 280 280 282 285 288 289 291 293 296 297 296 295 295 297 297 295 293 292 292 293 294 295 295 296 297 298 298 298 297 297 296 295 295 294 292 292 292 291 291 290 290
282 282 285 286 283 284 287 290 293 295 298 300 301 301 298 296 297 300 301 300 298 297 296 296 296 298 299 300 300 300 301 300 299 298 295 295 296 295 293 293 294 293 294 296
Height
5843 5846 5848 5851 5853 5855 5856 5856 5857 5858 5859 5861 5862 5862 5863 5864 5865 5866 5866 5867 5867 5867 5867 5868 5868 5868 5868 5868 5868 5868 5867 5867 5867 5866 5866 5864 5864 5863 5863 5862 5860 5859 5857 5856
5835 5838 5840 5842 5845 5847 5848 5849 5849 5851 5853 5854 5855 5856 5857 5858 5858 5859 5859 5859 5860 5860 5860 5860 5861 5860 5859 5859 5860 5861 5860 5859 5860 5859 5859 5858 5858 5857 5856 5855 5854 5853 5852 5850
5827 5829 5831 5833 5836 5838 5840 5841 5842 5843 5846 5847 5848 5849 5850 5851 5851 5852 5852 5852 5853 5853 5852 5852 5853 5853 5853 5852 5852 5852 5852 5852 5851 5851 5851 5850 5850 5849 5848 5848 5847 5846 5845 5843
5818 5821 5823 5827 5827 5829 5831 5833 5834 5835 5837 5839 5841 5842 5842 5843 5844 5844 5845 5845 5845 5845 5846 5845 5845 5846 5846 5845 5844 5844 5844 5844 5843 5843 5843 5842 5841 5841 5840 5839 5839 5838 5837 5836
5808 5811 5814 5817 5818 5820 5822 5823 5825 5827 5828 5830 5832 5833 5834 5834 5835 5835 5836 5837 5837 5837 5838 5838 5838 5838 5838 5837 5837 5836 5836 5836 5836 5835 5835 5834 5834 5833 5832 5831 5831 5830 5829 5828
5799 5801 5804 5809 5810 5811 5814 5814 5816 5818 5820 5821 5823 5825 5825 5825 5826 5826 5827 5827 5828 5828 5828 5828 5829 5828 5828 5828 5827 5827 5827 5826 5826 5826 5825 5825 5825 5824 5823 5823 5822 5821 5820 5819
5790 5792 5795 5799 5801 5803 5805 5806 5807 5809 5810 5812 5813 5815 5816 5816 5816 5816 5816 5817 5818 5818 5818 5818 5818 5819 5818 5818 5817 5817 5816 5816 5816 5816 5816 5816 5815 5815 5814 5813 5813 5812 5811 5810
5781 5783 5788 5790 5792 5794 5795 5797 5798 5799 5801 5802 5803 5804 5804 5805 5805 5805 5806 5807 5807 5806 5806 5807 5808 5808 5808 5807 5807 5806 5805 5805 5805 5805 5805 5805 5804 5804 5803 5803 5803 5802 5800 5800
5773 5776 5778 5780 5782 5783 5785 5787 5788 5790 5791 5792 5792 5793 5794 5794 5794 5795 5795 5795 5795 5795 5796 5795 5795 5795 5795 5796 5795 5794 5794 5794 5794 5794 5793 5792 5792 5792 5793 5792 5792 5790 5789 5789
5763 5765 5767 5770 5772 5773 5775 5776 5778 5779 5780 5781 5782 5782 5782 5782 5783 5783 5783 5781 5782 5783 5783 5783 5782 5782 5783 5783 5783 5782 5783 5783 5783 5782 5780 5780 5781 5781 5781 5781 5780 5779 5778 5778
5754 5756 5758 5760 5762 5763 5765 5766 5767 5768 5769 5769 5770 5771 5771 5771 5771 5770 5770 5771 5771 5771 5771 5771 5771 5771 5771 5771 5771 5772 5773 5772 5772 5772 5771 5770 5770 5770 5770 5770 5769 5769 5768 5767
5746 5748 5749 5751 5752 5754 5755 5756 5757 5758 5759 5759 5759 5759 5759 5760 5760 5760 5759 5759 5758 5758 5759 5759 5759 5759 5759 5760 5760 5761 5761 5762 5761 5761 5760 5759 5758 5758 5758 5758 5757 5757 5757 5756
5738 5738 5739 5741 5742 5743 5745 5745 5746 5747 5748 5747 5748 5748 5748 5748 5748 5748 5747 5747 5747 5747 5746 5746 5747 5747 5748 5748 5749 5749 5750 5750 5749 5749 5749 5748 5747 5747 5747 5747 5746 5746 5746 5745
5729 5730 5731 5732 5733 5734 5735 5735 5736 5737 5737 5736 5735 5736 5737 5737 5737 5736 5735 5735 5735 5735 5734 5734 5735 5735 5736 5736 5737 5737 5738 5738 5737 5737 5737 5736 5735 5735 5735 5735 5735 5734 5734 5733
5721 5722 5723 5724 5725 5725 5725 5725 5726 5727 5726 5725 5724 5725 5725 5726 5725 5724 5724 5723 5723 5723 5723 5723 5724 5724 5724 5724 5725 5725 5726 5726 5725 5725 5725 5725 5724 5724 5723 5723 5722 5722 5722 5721
5714 5715 5715 5716 5717 5717 5717 5717 5718 5718 5717 5717 5717 5716 5715 5715 5714 5713 5713 5713 5713 5713 5713 5713 5713 5713 5713 5713 5713 5713 5714 5714 5714 5713 5713 5713 5713 5712 5712 5711 5711 5710 5710 5709
5707 5708 5709 5709 5709 5709 5710 5710 5709 5709 5709 5709 5708 5707 5706 5706 5705 5704 5703 5703 5703 5702 5702 5702 5702 5702 5702 5702 5702 5702 5703 5703 5702 5702 5701 5700 5700 5700 5700 5699 5699 5699 5698 5698
5701 5702 5703 5703 5702 5702 5703 5702 5702 5702 5702 5701 5700 5699 5699 5698 5696 5695 5694 5693 5693 5693 5693 5692 5692 5692 5692 5692 5692 5692 5692 5691 5691 5690 5689 5689 5689 5689 5688 5688 5687 5687 5686 5686
5695 5696 5697 5697 5697 5696 5696 5695 5695 5695 5694 5693 5693 5692 5691 5690 5689 5687 5686 5685 5685 5685 5684 5684 5683 5683 5683 5683 5682 5682 5682 5681 5680 5679 5678 5678 5678 5677 5677 5677 5676 5675 5675 5674
5690 5690 5690 5690 5690 5690 5689 5689 5688 5688 5687 5687 5686 5685 5684 5683 5682 5681 5680 5679 5678 5677 5677 5676 5675 5675 5675 5674 5674 5673 5672 5671 5670 5669 5668 5667 5667 5666 5666 5665 5665 5664 5663 5662
5685 5685 5685 5684 5684 5684 5683 5683 5682 5682 5681 5681 5680 5679 5678 5677 5676 5675 5674 5673 5672 5671 5670 5669 5668 5668 5668 5667 5666 5665 5663 5662 5661 5659 5658 5658 5657 5656 5656 5655 5654 5653 5653 5652
5680 5680 5679 5679 5679 5679 5678 5678 5677 5676 5676 5675 5674 5674 5673 5671 5670 5669 5668 5667 5666 5665 5664 5663 5662 5661 5661 5659 5658 5657 5655 5654 5653 5652 5650 5649 5648 5648 5647 5646 5645 5644 5643 5642
5676 5676 5675 5675 5674 5674 5674 5673 5672 5672 5671 5670 5669 5669 5668 5667 5665 5664 5663 5662 5661 5660 5659 5658 5656 5655 5654 5653 5652 5650 5649 5648 5646 5645 5644 5643 5642 5641 5639 5638 5637 5636 5635 5633
5671 5671 5671 5670 5670 5670 5670 5669 5668 5667 5667 5666 5665 5664 5663 5662 5661 5659 5659 5658 5657 5655 5654 5653 5652 5651 5649 5648 5647 5645 5643 5642 5641 5640 5638 5637 5635 5634 5633 5631 5629 5628 5626 5625
5668 5667 5667 5666 5666 5666 5666 5665 5664 5663 5663 5662 5662 5661 5660 5659 5657 5656 5655 5654 5652 5651 5650 5649 5648 5646 5645 5644 5642 5640 5639 5637 5635 5634 5633 5631 5629 5628 5626 5625 5623 5621 5620 5618
5664 5664 5664 5663 5663 5663 5662 5662 5661 5660 5660 5659 5658 5657 5656 5655 5653 5652 5651 5649 5648 5647 5646 5645 5644 5642 5641 5639 5638 5636 5634 5632 5630 5629 5627 5626 5624 5622 5621 5619 5617 5615 5613 5612
5662 5662 5661 5661 5661 5660 5660 5659 5659 5658 5657 5656 5654 5653 5652 5651 5649 5648 5647 5646 5645 5644 5643 5641 5640 5639 5637 5635 5633 5632 5630 5628 5626 5624 5622 5621 5619 5617 5615 5613 5612 5610 5608 5606